Regional Weather Roundup
Issued by NWS

Home | Current Version | Previous Version | Graphics & Text | Print | Product List | Glossary On
Versions: 1 2 3 4 5 6 7 8 9 10 11 12 13 14 15 16 17 18 19 20 21 22 23 24 25 26 27 28 29 30 31 32 33 34 35 36 37 38 39 40 41 42 43 44 45 46 47 48 49 50
000
ASUS43 KBIS 030010
RWRND

NORTH DAKOTA REGIONAL WEATHER ROUNDUP
NATIONAL WEATHER SERVICE BISMARCK ND
700 PM CDT THU JUL 02 2015

NOTE: "FAIR" INDICATES FEW OR NO CLOUDS BELOW 12,000 FEET WITH NO
SIGNIFICANT WEATHER AND/OR OBSTRUCTIONS TO VISIBILITY.


NDZ001>003-009>011-017-030100-
NORTHWEST NORTH DAKOTA

CITY           SKY/WX    TMP DP  RH WIND       PRES   REMARKS
WILLISTON      MOSUNNY   82  57  42 N10       29.99F
6HR MIN TEMP:  69; 6HR MAX TEMP:  85; 6HR PCP:  0.06;

MINOT          CLOUDY    77  65  66 NW8       29.95S HAZE
MINOT AFB      PTSUNNY   80  69  70 NW9       29.94S HAZE
$$

NDZ018>021-031>035-040>046-030100-
SOUTHWEST NORTH DAKOTA

CITY           SKY/WX    TMP DP  RH WIND       PRES   REMARKS
BISMARCK       CLOUDY    77  62  59 N12       29.97S HAZE
6HR MIN TEMP:  75; 6HR MAX TEMP:  81;

DICKINSON      SUNNY     79  57  46 N9        30.00F
GARRISON         N/A     78  66  66 N7        29.96F
6HR MIN TEMP:  74; 6HR MAX TEMP:  80;

HETTINGER ARPT MOSUNNY   78  58  49 N9        30.04S HAZE
$$

NDZ004>008-012>016-024-026-027-054-030100-
NORTHEAST NORTH DAKOTA

CITY           SKY/WX    TMP DP  RH WIND       PRES   REMARKS
GRAND FORKS    CLOUDY    76  66  71 SW9       29.87F
GRND FRKS AFB  PTSUNNY   76  66  71 W6        29.89F
DEVILS LAKE    SUNNY     75  61  60 W9        29.91S
$$

NDZ022-023-025-028>030-036>039-047>053-030100-
SOUTHEAST NORTH DAKOTA

CITY           SKY/WX    TMP DP  RH WIND       PRES   REMARKS
FARGO          PTSUNNY   76  54  46 S9        29.93F
6HR MIN TEMP:  75; 6HR MAX TEMP:  79;

JAMESTOWN      PTSUNNY   76  63  64 S6        29.93S
$$



USA.gov is the U.S. government's official web portal to all federal, state and local government web resources and services.